Time,TemperatureF,DewpointF,PressureIn,WindDirection,WindDirectionDegrees,WindSpeedMPH,WindSpeedGustMPH,Humidity,HourlyPrecipIn,Conditions,Clouds,dailyrainin,SoftwareType,DateUTC
2013-02-21 00:08:00,38.5,17.0,30.16,West,276,1.0,2.0,41,0.00,,,0.00,weatherlink.com 1.10,2013-02-21 05:08:00,
2013-02-21 00:23:00,38.3,17.0,30.15,NW,309,1.0,3.0,42,0.00,,,0.00,weatherlink.com 1.10,2013-02-21 05:23:00,
2013-02-21 00:38:00,38.1,17.0,30.15,WNW,300,2.0,4.0,42,0.00,,,0.00,weatherlink.com 1.10,2013-02-21 05:38:00,
2013-02-21 00:53:00,37.7,16.0,30.14,NW,319,2.0,3.0,42,0.00,,,0.00,weatherlink.com 1.10,2013-02-21 05:53:00,
2013-02-21 01:08:00,37.5,17.0,30.14,North,9,0.0,2.0,44,0.00,,,0.00,weatherlink.com 1.10,2013-02-21 06:08:00,
2013-02-21 01:23:00,37.1,18.0,30.13,NW,315,0.0,2.0,46,0.00,,,0.00,weatherlink.com 1.10,2013-02-21 06:23:00,
2013-02-21 01:38:00,36.6,17.0,30.14,WNW,301,2.0,2.0,46,0.00,,,0.00,weatherlink.com 1.10,2013-02-21 06:38:00,
2013-02-21 01:53:00,36.6,17.0,30.14,NW,319,1.0,2.0,46,0.00,,,0.00,weatherlink.com 1.10,2013-02-21 06:53:00,
2013-02-21 02:08:00,36.6,18.0,30.15,NNW,328,3.0,3.0,47,0.00,,,0.00,weatherlink.com 1.10,2013-02-21 07:08:00,
2013-02-21 02:23:00,36.7,18.0,30.14,West,267,1.0,3.0,47,0.00,,,0.00,weatherlink.com 1.10,2013-02-21 07:23:00,
2013-02-21 02:38:00,36.5,18.0,30.13,West,276,0.0,3.0,48,0.00,,,0.00,weatherlink.com 1.10,2013-02-21 07:38:00,
2013-02-21 02:53:00,36.1,18.0,30.14,WNW,290,1.0,2.0,49,0.00,,,0.00,weatherlink.com 1.10,2013-02-21 07:53:00,
2013-02-21 03:08:00,35.9,18.0,30.12,NNW,336,1.0,2.0,49,0.00,,,0.00,weatherlink.com 1.10,2013-02-21 08:08:00,
2013-02-21 03:23:00,35.7,19.0,30.13,NNW,336,1.0,2.0,50,0.00,,,0.00,weatherlink.com 1.10,2013-02-21 08:23:00,
2013-02-21 03:38:00,35.5,19.0,30.14,WNW,295,0.0,1.0,52,0.00,,,0.00,weatherlink.com 1.10,2013-02-21 08:38:00,
2013-02-21 03:53:00,35.7,19.0,30.13,NW,307,0.0,2.0,51,0.00,,,0.00,weatherlink.com 1.10,2013-02-21 08:53:00,
2013-02-21 04:08:00,35.8,19.0,30.13,NW,325,1.0,3.0,50,0.00,,,0.00,weatherlink.com 1.10,2013-02-21 09:08:00,
2013-02-21 04:23:00,35.7,18.0,30.13,WNW,300,0.0,3.0,49,0.00,,,0.00,weatherlink.com 1.10,2013-02-21 09:23:00,
2013-02-21 04:38:00,35.2,18.0,30.12,NW,324,2.0,2.0,49,0.00,,,0.00,weatherlink.com 1.10,2013-02-21 09:38:00,
2013-02-21 04:54:00,34.8,17.0,30.13,NW,307,0.0,3.0,49,0.00,,,0.00,weatherlink.com 1.10,2013-02-21 09:54:00,
2013-02-21 05:08:00,34.4,18.0,30.14,NW,308,1.0,1.0,51,0.00,,,0.00,weatherlink.com 1.10,2013-02-21 10:08:00,
2013-02-21 05:23:00,34.0,18.0,30.14,NNW,327,1.0,2.0,52,0.00,,,0.00,weatherlink.com 1.10,2013-02-21 10:23:00,
2013-02-21 05:38:00,33.7,18.0,30.14,NNW,327,1.0,2.0,53,0.00,,,0.00,weatherlink.com 1.10,2013-02-21 10:38:00,
2013-02-21 05:53:00,33.4,18.0,30.15,NW,312,1.0,2.0,53,0.00,,,0.00,weatherlink.com 1.10,2013-02-21 10:53:00,
2013-02-21 06:09:00,33.1,19.0,30.16,NNW,329,1.0,2.0,57,0.00,,,0.00,weatherlink.com 1.10,2013-02-21 11:09:00,
2013-02-21 06:23:00,32.7,19.0,30.16,NNW,330,0.0,2.0,57,0.00,,,0.00,weatherlink.com 1.10,2013-02-21 11:23:00,
2013-02-21 06:39:00,32.3,20.0,30.16,NNW,330,0.0,1.0,61,0.00,,,0.00,weatherlink.com 1.10,2013-02-21 11:39:00,
2013-02-21 06:54:00,31.7,19.0,30.17,WNW,299,0.0,2.0,59,0.00,,,0.00,weatherlink.com 1.10,2013-02-21 11:54:00,
2013-02-21 07:09:00,31.3,19.0,30.17,WNW,299,0.0,1.0,60,0.00,,,0.00,weatherlink.com 1.10,2013-02-21 12:09:00,
2013-02-21 07:24:00,31.3,19.0,30.17,WNW,299,0.0,0.0,61,0.00,,,0.00,weatherlink.com 1.10,2013-02-21 12:24:00,
2013-02-21 07:39:00,30.9,20.0,30.17,WNW,299,0.0,0.0,64,0.00,,,0.00,weatherlink.com 1.10,2013-02-21 12:39:00,
2013-02-21 07:54:00,30.5,20.0,30.18,WNW,300,0.0,0.0,64,0.00,,,0.00,weatherlink.com 1.10,2013-02-21 12:54:00,
2013-02-21 08:09:00,31.3,20.0,30.19,WNW,299,0.0,1.0,63,0.00,,,0.00,weatherlink.com 1.10,2013-02-21 13:09:00,
2013-02-21 08:24:00,32.5,21.0,30.19,NE,46,0.0,1.0,62,0.00,,,0.00,weatherlink.com 1.10,2013-02-21 13:24:00,
2013-02-21 08:39:00,33.9,23.0,30.20,ENE,61,0.0,1.0,64,0.00,,,0.00,weatherlink.com 1.10,2013-02-21 13:39:00,
2013-02-21 08:54:00,35.2,21.0,30.20,NNE,23,0.0,1.0,57,0.00,,,0.00,weatherlink.com 1.10,2013-02-21 13:54:00,
2013-02-21 09:09:00,36.6,22.0,30.20,NNE,23,0.0,1.0,57,0.00,,,0.00,weatherlink.com 1.10,2013-02-21 14:09:00,
2013-02-21 09:24:00,39.0,19.0,30.20,East,79,2.0,3.0,45,0.00,,,0.00,weatherlink.com 1.10,2013-02-21 14:24:00,
2013-02-21 09:39:00,41.1,21.0,30.20,ENE,78,2.0,4.0,44,0.00,,,0.00,weatherlink.com 1.10,2013-02-21 14:39:00,
2013-02-21 09:54:00,42.2,21.0,30.19,ESE,107,1.0,3.0,43,0.00,,,0.00,weatherlink.com 1.10,2013-02-21 14:54:00,
2013-02-21 10:09:00,43.6,22.0,30.19,NNE,32,1.0,3.0,42,0.00,,,0.00,weatherlink.com 1.10,2013-02-21 15:09:00,
2013-02-21 10:24:00,44.7,22.0,30.19,North,6,1.0,4.0,41,0.00,,,0.00,weatherlink.com 1.10,2013-02-21 15:24:00,
2013-02-21 10:39:00,46.6,23.0,30.18,ENE,71,1.0,3.0,39,0.00,,,0.00,weatherlink.com 1.10,2013-02-21 15:39:00,
2013-02-21 10:54:00,48.2,22.0,30.17,ESE,106,1.0,3.0,36,0.00,,,0.00,weatherlink.com 1.10,2013-02-21 15:54:00,
2013-02-21 11:09:00,49.7,22.0,30.17,East,86,3.0,3.0,34,0.00,,,0.00,weatherlink.com 1.10,2013-02-21 16:09:00,
2013-02-21 11:24:00,50.7,22.0,30.16,West,274,0.0,2.0,32,0.00,,,0.00,weatherlink.com 1.10,2013-02-21 16:24:00,
2013-02-21 11:39:00,52.6,23.0,30.16,NE,55,4.0,4.0,31,0.00,,,0.00,weatherlink.com 1.10,2013-02-21 16:39:00,
2013-02-21 11:55:00,53.5,23.0,30.16,East,80,2.0,3.0,30,0.00,,,0.00,weatherlink.com 1.10,2013-02-21 16:55:00,
2013-02-21 12:10:00,55.2,22.0,30.15,ENE,63,1.0,3.0,27,0.00,,,0.00,weatherlink.com 1.10,2013-02-21 17:10:00,
2013-02-21 12:25:00,56.0,21.0,30.14,ENE,69,2.0,3.0,26,0.00,,,0.00,weatherlink.com 1.10,2013-02-21 17:25:00,
2013-02-21 12:40:00,57.6,21.0,30.12,NE,56,1.0,4.0,24,0.00,,,0.00,weatherlink.com 1.10,2013-02-21 17:40:00,
2013-02-21 12:55:00,58.5,22.0,30.12,ENE,76,4.0,4.0,24,0.00,,,0.00,weatherlink.com 1.10,2013-02-21 17:55:00,
2013-02-21 13:10:00,58.5,20.0,30.11,South,191,2.0,3.0,22,0.00,,,0.00,weatherlink.com 1.10,2013-02-21 18:10:00,
2013-02-21 13:25:00,59.4,20.0,30.10,East,95,2.0,5.0,22,0.00,,,0.00,weatherlink.com 1.10,2013-02-21 18:25:00,
2013-02-21 13:40:00,59.9,22.0,30.09,SSE,159,1.0,3.0,23,0.00,,,0.00,weatherlink.com 1.10,2013-02-21 18:40:00,
2013-02-21 13:55:00,60.5,23.0,30.07,SSE,148,2.0,3.0,24,0.00,,,0.00,weatherlink.com 1.10,2013-02-21 18:55:00,
2013-02-21 14:10:00,60.6,23.0,30.07,WSW,248,2.0,3.0,24,0.00,,,0.00,weatherlink.com 1.10,2013-02-21 19:10:00,
2013-02-21 14:25:00,62.1,24.0,30.07,SSE,150,1.0,4.0,23,0.00,,,0.00,weatherlink.com 1.10,2013-02-21 19:25:00,
2013-02-21 14:40:00,62.4,24.0,30.06,East,87,3.0,4.0,23,0.00,,,0.00,weatherlink.com 1.10,2013-02-21 19:40:00,
2013-02-21 14:54:00,62.6,26.0,30.06,SE,142,1.0,3.0,25,0.00,,,0.00,weatherlink.com 1.10,2013-02-21 19:54:00,
2013-02-21 15:10:00,62.7,26.0,30.05,ESE,117,1.0,3.0,25,0.00,,,0.00,weatherlink.com 1.10,2013-02-21 20:10:00,
2013-02-21 15:25:00,62.6,26.0,30.04,East,94,1.0,5.0,25,0.00,,,0.00,weatherlink.com 1.10,2013-02-21 20:25:00,
2013-02-21 15:41:00,62.7,27.0,30.03,SSW,194,1.0,4.0,26,0.00,,,0.00,weatherlink.com 1.10,2013-02-21 20:41:00,
2013-02-21 15:55:00,62.4,28.0,30.03,East,97,2.0,5.0,27,0.00,,,0.00,weatherlink.com 1.10,2013-02-21 20:55:00,
2013-02-21 16:10:00,62.6,27.0,30.01,ENE,72,1.0,4.0,26,0.00,,,0.00,weatherlink.com 1.10,2013-02-21 21:10:00,
2013-02-21 16:25:00,62.5,29.0,30.01,NE,49,2.0,4.0,28,0.00,,,0.00,weatherlink.com 1.10,2013-02-21 21:25:00,
2013-02-21 16:41:00,61.8,27.0,30.00,ENE,74,1.0,4.0,27,0.00,,,0.00,weatherlink.com 1.10,2013-02-21 21:41:00,
2013-02-21 16:55:00,61.4,28.0,30.00,ENE,77,1.0,4.0,28,0.00,,,0.00,weatherlink.com 1.10,2013-02-21 21:55:00,
2013-02-21 17:10:00,61.1,28.0,29.99,ESE,104,1.0,3.0,28,0.00,,,0.00,weatherlink.com 1.10,2013-02-21 22:10:00,
2013-02-21 17:25:00,60.7,28.0,29.98,East,87,1.0,3.0,29,0.00,,,0.00,weatherlink.com 1.10,2013-02-21 22:25:00,
2013-02-21 17:41:00,60.6,28.0,29.98,ENE,70,1.0,3.0,29,0.00,,,0.00,weatherlink.com 1.10,2013-02-21 22:41:00,
2013-02-21 17:56:00,60.4,28.0,29.97,ESE,113,1.0,3.0,29,0.00,,,0.00,weatherlink.com 1.10,2013-02-21 22:56:00,
2013-02-21 18:10:00,60.1,28.0,29.98,ENE,73,1.0,3.0,30,0.00,,,0.00,weatherlink.com 1.10,2013-02-21 23:10:00,
2013-02-21 18:25:00,59.9,28.0,29.97,East,82,2.0,3.0,30,0.00,,,0.00,weatherlink.com 1.10,2013-02-21 23:25:00,
2013-02-21 18:40:00,59.7,29.0,29.98,East,101,2.0,3.0,31,0.00,,,0.00,weatherlink.com 1.10,2013-02-21 23:40:00,
2013-02-21 18:55:00,59.8,29.0,29.99,SE,142,0.0,4.0,31,0.00,,,0.00,weatherlink.com 1.10,2013-02-21 23:55:00,
2013-02-21 19:10:00,59.1,32.0,29.99,East,89,1.0,4.0,36,0.00,,,0.00,weatherlink.com 1.10,2013-02-22 00:10:00,
2013-02-21 19:26:00,58.5,31.0,30.00,East,96,2.0,3.0,36,0.00,,,0.00,weatherlink.com 1.10,2013-02-22 00:26:00,
2013-02-21 19:41:00,58.5,32.0,30.00,East,82,2.0,4.0,37,0.00,,,0.00,weatherlink.com 1.10,2013-02-22 00:41:00,
2013-02-21 19:56:00,58.4,31.0,30.00,East,95,1.0,3.0,36,0.00,,,0.00,weatherlink.com 1.10,2013-02-22 00:56:00,
2013-02-21 20:11:00,58.5,31.0,30.01,East,89,2.0,3.0,36,0.00,,,0.00,weatherlink.com 1.10,2013-02-22 01:11:00,
2013-02-21 20:26:00,58.6,32.0,30.00,ENE,77,1.0,3.0,37,0.00,,,0.00,weatherlink.com 1.10,2013-02-22 01:26:00,
2013-02-21 20:41:00,58.6,32.0,30.01,ENE,70,0.0,2.0,37,0.00,,,0.00,weatherlink.com 1.10,2013-02-22 01:41:00,
2013-02-21 20:56:00,58.3,33.0,30.03,East,100,1.0,1.0,38,0.00,,,0.00,weatherlink.com 1.10,2013-02-22 01:56:00,
2013-02-21 21:11:00,57.9,34.0,30.05,NNW,328,0.0,1.0,40,0.00,,,0.00,weatherlink.com 1.10,2013-02-22 02:11:00,
2013-02-21 21:26:00,57.6,33.0,30.04,ENE,77,1.0,1.0,40,0.00,,,0.00,weatherlink.com 1.10,2013-02-22 02:26:00,
2013-02-21 21:41:00,57.6,36.0,30.05,WSW,253,1.0,1.0,44,0.00,,,0.00,weatherlink.com 1.10,2013-02-22 02:41:00,
2013-02-21 21:56:00,57.0,36.0,30.04,ENE,77,2.0,2.0,46,0.00,,,0.00,weatherlink.com 1.10,2013-02-22 02:56:00,
2013-02-21 22:11:00,57.0,35.0,30.03,ENE,75,1.0,3.0,44,0.00,,,0.00,weatherlink.com 1.10,2013-02-22 03:11:00,
2013-02-21 22:26:00,57.7,35.0,30.04,East,87,3.0,3.0,42,0.00,,,0.00,weatherlink.com 1.10,2013-02-22 03:26:00,
2013-02-21 22:40:00,57.6,35.0,30.02,ENE,75,2.0,5.0,43,0.00,,,0.00,weatherlink.com 1.10,2013-02-22 03:40:00,
2013-02-21 23:11:00,54.9,41.0,30.07,WNW,284,1.0,3.0,59,0.02,,,0.02,weatherlink.com 1.10,2013-02-22 04:11:00,
2013-02-21 23:25:00,50.6,44.0,30.08,ESE,120,1.0,2.0,77,0.03,,,0.03,weatherlink.com 1.10,2013-02-22 04:25:00,
2013-02-21 23:40:00,48.4,43.0,30.07,West,276,2.0,2.0,82,0.05,,,0.05,weatherlink.com 1.10,2013-02-22 04:40:00,
2013-02-21 23:55:00,47.4,44.0,30.10,ENE,76,2.0,3.0,89,0.09,,,0.09,weatherlink.com 1.10,2013-02-22 04:55:00,